Weather History for Rockwall, TX

Change the Weather History Date:

Friday, August 23, 2013

  Actual Average (KDFW) Record (KDFW)
Temperature  
Mean Temperature 88 °F 85 °F  
Max Temperature 99 °F 96 °F 107 °F (1952)
Min Temperature 76 °F 75 °F 64 °F (1961)
Degree Days  
Heating Degree Days 0 0  
Month to date heating degree days 0  
Since 1 June heating degree days 0  
Since 1 July heating degree days 0  
Cooling Degree Days 22 20  
Month to date cooling degree days 480  
Year to date cooling degree days 2024  
Since 1 June cooling degree days 1602  
Growing Degree Days 38 (Base 50)    
Moisture  
Dew Point 69 °F    
Average Humidity 58    
Maximum Humidity 81    
Minimum Humidity 34    
Precipitation  
Precipitation 0.00 in 0.07 in 1.46 in (1908)
Month to date precipitation 1.30  
Year to date precipitation 23.50  
Sea Level Pressure  
Sea Level Pressure 29.98 in    
Wind  
Wind Speed 4 mph (SE)    
Max Wind Speed 16 mph    
Max Gust Speed 21 mph    
Visibility 10 miles    
Events      
T = Trace of Precipitation, MM = Missing Value Source: NWS Daily Summary

Daily Weather History Graph

Daily Weather History Graph

Search for Another Location

Airport:

Trip Planner

Search our weather history database for the weather conditions in past years. The results will help you decide how hot, cold, wet, or windy it might be!

Date:

Astronomy

Aug. 23, 2013 Rise Set
Actual Time 6:54 AM CDT 8:01 PM CDT
Civil Twilight 6:28 AM CDT 8:27 PM CDT
Nautical Twilight 5:58 AM CDT 8:57 PM CDT
Astronomical Twilight 5:27 AM CDT 9:28 PM CDT
Moon 9:35 PM CDT (8/23) 9:38 AM CDT (8/23)
Length of Visible Light 13h 58m
Length of Day
13h 06m
Waning Gibbous, 91% of the Moon is Illuminated
Aug 23
Waning Gibbous
Aug 28
Last Quarter
Sep 5
New
Sep 12
First Quarter
Sep 19
Full

Hourly Weather History & Observations

Time (CDT) Temp. Heat Index Dew Point Humidity Pressure Visibility Wind Dir Wind Speed Gust Speed Precip Events Conditions
12:15 AM 82.6 °F 85.9 °F 68.9 °F 63% 30.00 in 10.0 mi ESE 3.5 mph - N/A   Scattered Clouds
12:35 AM 82.6 °F 85.9 °F 68.9 °F 63% 29.99 in 10.0 mi SE 3.5 mph - N/A   Scattered Clouds
12:55 AM 81.7 °F 84.9 °F 68.9 °F 65% 30.00 in 10.0 mi Calm Calm - N/A   Mostly Cloudy
1:15 AM 81.0 °F 84.1 °F 69.1 °F 67% 29.99 in 10.0 mi ESE 3.5 mph - N/A   Scattered Clouds
1:35 AM 81.0 °F 84.1 °F 68.9 °F 67% 29.99 in 10.0 mi SE 3.5 mph - N/A   Clear
1:55 AM 80.6 °F 83.5 °F 68.9 °F 67% 29.99 in 10.0 mi Calm Calm - N/A   Clear
2:15 AM 80.1 °F 82.9 °F 69.1 °F 69% 29.98 in 10.0 mi SE 4.6 mph - N/A   Scattered Clouds
2:35 AM 80.6 °F 83.6 °F 69.3 °F 68% 29.98 in 10.0 mi SSE 4.6 mph - N/A   Mostly Cloudy
2:55 AM 80.1 °F 82.9 °F 69.3 °F 69% 29.98 in 10.0 mi SE 3.5 mph - N/A   Scattered Clouds
3:15 AM 80.6 °F 83.6 °F 69.1 °F 68% 29.98 in 10.0 mi SE 3.5 mph - N/A   Scattered Clouds
3:35 AM 79.0 °F - 69.4 °F 72% 29.98 in 10.0 mi ESE 3.5 mph - N/A   Scattered Clouds
3:55 AM 78.3 °F - 69.4 °F 74% 29.98 in 10.0 mi SE 3.5 mph - N/A   Clear
4:15 AM 78.1 °F - 69.1 °F 74% 29.99 in 10.0 mi Calm Calm - N/A   Scattered Clouds
4:35 AM 77.9 °F - 69.3 °F 75% 29.99 in 10.0 mi Calm Calm - N/A   Clear
4:55 AM 77.0 °F - 69.4 °F 77% 29.99 in 10.0 mi ESE 3.5 mph - N/A   Clear
5:15 AM 76.6 °F - 69.3 °F 78% 29.99 in 10.0 mi SE 3.5 mph - N/A   Clear
5:35 AM 76.5 °F - 69.3 °F 78% 30.00 in 10.0 mi SE 3.5 mph - N/A   Scattered Clouds
5:55 AM 76.6 °F - 69.4 °F 78% 30.00 in 10.0 mi SE 3.5 mph - N/A   Overcast
6:15 AM 77.0 °F - 69.4 °F 77% 30.00 in 10.0 mi SSE 3.5 mph - N/A   Overcast
6:35 AM 77.0 °F - 69.8 °F 78% 30.00 in 10.0 mi Calm Calm - N/A   Overcast
6:55 AM 76.1 °F - 69.8 °F 81% 30.02 in 10.0 mi ESE 3.5 mph - N/A   Scattered Clouds
7:15 AM 76.3 °F - 69.8 °F 80% 30.02 in 10.0 mi SE 3.5 mph - N/A   Mostly Cloudy
7:35 AM 77.5 °F - 70.0 °F 77% 30.02 in 10.0 mi Calm Calm - N/A   Scattered Clouds
7:55 AM 78.3 °F - 70.3 °F 77% 30.03 in 10.0 mi Calm Calm - N/A   Scattered Clouds
8:15 AM 79.2 °F - 70.7 °F 75% 30.04 in 10.0 mi Calm Calm - N/A   Clear
8:35 AM 80.2 °F 83.7 °F 70.9 °F 73% 30.04 in 10.0 mi SSE 4.6 mph - N/A   Clear
8:55 AM 82.4 °F 87.2 °F 71.6 °F 70% 30.04 in 10.0 mi SSE 4.6 mph - N/A   Clear
9:15 AM 84.2 °F 89.9 °F 72.0 °F 67% 30.04 in 10.0 mi SSW 3.5 mph - N/A   Clear
9:35 AM 85.3 °F 91.5 °F 72.5 °F 65% 30.03 in 10.0 mi South 4.6 mph - N/A   Clear
9:55 AM 86.9 °F 94.1 °F 73.0 °F 63% 30.03 in 10.0 mi SSW 5.8 mph - N/A   Clear
10:15 AM 87.3 °F 94.5 °F 73.0 °F 62% 30.04 in 10.0 mi SSW 6.9 mph - N/A   Clear
10:35 AM 88.9 °F 96.6 °F 72.7 °F 59% 30.04 in 10.0 mi SSW 6.9 mph - N/A   Clear
10:55 AM 89.2 °F 94.9 °F 70.9 °F 54% 30.04 in 10.0 mi SSW 6.9 mph - N/A   Clear
11:15 AM 90.9 °F 97.3 °F 71.2 °F 52% 30.04 in 10.0 mi SW 5.8 mph - N/A   Clear
11:35 AM 90.9 °F 97.8 °F 71.4 °F 53% 30.03 in 10.0 mi WSW 5.8 mph - N/A   Clear
11:55 AM 91.4 °F 97.8 °F 71.1 °F 51% 30.03 in 10.0 mi WSW 5.8 mph - N/A   Clear
12:15 PM 91.9 °F 97.9 °F 70.5 °F 49% 30.02 in 10.0 mi West 8.1 mph - N/A   Clear
12:35 PM 93.2 °F 99.4 °F 70.5 °F 47% 30.01 in 10.0 mi West 3.5 mph - N/A   Clear
12:55 PM 94.5 °F 101.4 °F 70.5 °F 46% 30.00 in 10.0 mi SW 4.6 mph - N/A   Scattered Clouds
1:15 PM 95.0 °F 101.9 °F 70.7 °F 45% 30.00 in 10.0 mi SW 9.2 mph - N/A   Scattered Clouds
1:35 PM 94.6 °F 101.1 °F 70.2 °F 45% 29.99 in 10.0 mi WSW 8.1 mph - N/A   Scattered Clouds
1:55 PM 95.4 °F 102.0 °F 70.3 °F 44% 29.98 in 10.0 mi SSW 5.8 mph - N/A   Scattered Clouds
2:15 PM 95.5 °F 101.8 °F 69.6 °F 43% 29.97 in 10.0 mi SW 4.6 mph - N/A   Scattered Clouds
2:35 PM 96.1 °F 99.9 °F 66.9 °F 38% 29.96 in 10.0 mi South 6.9 mph - N/A   Scattered Clouds
2:55 PM 95.4 °F 99.1 °F 67.1 °F 39% 29.95 in 10.0 mi NE 4.6 mph - N/A   Scattered Clouds
3:15 PM 96.6 °F 100.3 °F 66.4 °F 37% 29.94 in 10.0 mi East 5.8 mph - N/A   Scattered Clouds
3:35 PM 97.0 °F 101.0 °F 66.9 °F 37% 29.94 in 10.0 mi Calm Calm - N/A   Scattered Clouds
3:55 PM 99.1 °F 103.8 °F 66.7 °F 35% 29.92 in 10.0 mi SSE 8.1 mph - N/A   Mostly Cloudy
4:15 PM 96.8 °F 100.1 °F 66.0 °F 36% 29.92 in 10.0 mi East 6.9 mph - N/A   Mostly Cloudy
4:35 PM 96.1 °F 99.3 °F 65.7 °F 37% 29.92 in 10.0 mi South 5.8 mph - N/A   Scattered Clouds
4:55 PM 97.9 °F 100.9 °F 65.3 °F 34% 29.91 in 10.0 mi ENE 4.6 mph - N/A   Clear
5:15 PM 99.1 °F 103.2 °F 66.0 °F 34% 29.91 in 10.0 mi East 8.1 mph - N/A   Scattered Clouds
5:35 PM 97.9 °F 101.5 °F 66.0 °F 35% 29.91 in 10.0 mi Calm Calm - N/A   Scattered Clouds
5:55 PM 96.8 °F 99.0 °F 64.2 °F 34% 29.91 in 10.0 mi Calm Calm - N/A   Scattered Clouds
6:15 PM 95.5 °F 98.9 °F 66.2 °F 38% 29.92 in 10.0 mi North 16.1 mph 20.7 mph N/A   Scattered Clouds
6:35 PM 89.1 °F 92.9 °F 68.0 °F 50% 29.91 in 10.0 mi NNE 10.4 mph 18.4 mph N/A   Scattered Clouds
6:55 PM 90.3 °F 93.9 °F 67.3 °F 47% 29.90 in 10.0 mi NNE 9.2 mph - N/A   Scattered Clouds
7:15 PM 91.2 °F 94.1 °F 66.4 °F 44% 29.90 in 10.0 mi NNE 10.4 mph - N/A   Clear
7:35 PM 90.7 °F 93.2 °F 66.0 °F 44% 29.90 in 7.0 mi NNE 9.2 mph - N/A   Clear
7:55 PM 89.2 °F 91.6 °F 66.0 °F 46% 29.91 in 10.0 mi NE 6.9 mph - N/A   Clear
8:15 PM 88.2 °F 90.6 °F 66.2 °F 48% 29.92 in 10.0 mi NE 8.1 mph - N/A   Clear
8:35 PM 86.9 °F 89.6 °F 66.7 °F 51% 29.93 in 10.0 mi NE 6.9 mph - N/A   Clear
8:55 PM 86.0 °F 88.8 °F 67.1 °F 53% 29.94 in 10.0 mi NE 5.8 mph - N/A   Clear
9:15 PM 85.3 °F 88.2 °F 67.3 °F 55% 29.94 in 10.0 mi NE 5.8 mph - N/A   Clear
9:35 PM 84.4 °F 87.3 °F 67.5 °F 57% 29.95 in 10.0 mi NE 5.8 mph - N/A   Clear
9:55 PM 84.2 °F 87.3 °F 67.8 °F 58% 29.96 in 10.0 mi NE 3.5 mph - N/A   Clear
10:15 PM 84.2 °F 87.3 °F 68.0 °F 58% 29.97 in 10.0 mi NE 4.6 mph - N/A   Clear
10:35 PM 85.3 °F 88.5 °F 68.2 °F 56% 29.97 in 10.0 mi ENE 8.1 mph - N/A   Scattered Clouds
10:55 PM 84.7 °F 87.9 °F 68.2 °F 57% 29.97 in 10.0 mi East 10.4 mph - N/A   Scattered Clouds
11:15 PM 83.7 °F 86.7 °F 68.0 °F 59% 29.97 in 10.0 mi East 8.1 mph - N/A   Clear
11:35 PM 83.3 °F 86.4 °F 68.2 °F 60% 29.97 in 10.0 mi East 5.8 mph - N/A   Clear
11:55 PM 82.9 °F 86.0 °F 68.4 °F 61% 29.97 in 10.0 mi ENE 5.8 mph - N/A   Clear